Regional Weather Roundup
Issued by NWS

Home | Current Version | Previous Version | Graphics & Text | Print | Product List | Glossary On
Versions: 1 2 3 4 5 6 7 8 9 10 11 12 13 14 15 16 17 18 19 20 21 22 23 24 25 26 27 28 29 30 31 32 33 34 35 36 37 38 39 40 41 42 43 44 45 46 47 48 49 50
000
ASUS43 KBIS 251510
RWRND

NORTH DAKOTA REGIONAL WEATHER ROUNDUP
NATIONAL WEATHER SERVICE BISMARCK ND
1000 AM CDT MON JUL 25 2016

NOTE: "FAIR" INDICATES FEW OR NO CLOUDS BELOW 12,000 FEET WITH NO
SIGNIFICANT WEATHER AND/OR OBSTRUCTIONS TO VISIBILITY.


NDZ001>003-009>011-017-251600-
NORTHWEST NORTH DAKOTA

CITY           SKY/WX    TMP DP  RH WIND       PRES   REMARKS
WILLISTON      SUNNY     74  56  53 CALM      29.98R
MINOT          SUNNY     78  59  51 SE9       29.97S
MINOT AFB      SUNNY     74  62  65 SE7       29.96F
$$

NDZ018>021-031>035-040>046-251600-
SOUTHWEST NORTH DAKOTA

CITY           SKY/WX    TMP DP  RH WIND       PRES   REMARKS
BISMARCK       SUNNY     77  62  59 S9        30.00S
DICKINSON      SUNNY     77  55  46 S8        29.99S
GARRISON         N/A     73  60  63 SE5       29.98S
HETTINGER ARPT SUNNY     82  54  37 SW8       30.04S
$$

NDZ004>008-012>016-024-026-027-054-251600-
NORTHEAST NORTH DAKOTA

CITY           SKY/WX    TMP DP  RH WIND       PRES   REMARKS
GRAND FORKS    SUNNY     76  62  62 VRB3      30.01S
GRND FRKS AFB  SUNNY     78  62  57 W3        30.02S
DEVILS LAKE    SUNNY     75  61  61 SE7       30.03R
$$

NDZ022-023-025-028>030-036>039-047>053-251600-
SOUTHEAST NORTH DAKOTA

CITY           SKY/WX    TMP DP  RH WIND       PRES   REMARKS
FARGO          SUNNY     77  60  55 CALM      30.05R
JAMESTOWN      SUNNY     75  62  64 SE8       30.03S
$$





USA.gov is the U.S. government's official web portal to all federal, state and local government web resources and services.